{"data":{"norad_id":25504,"intl_designator":"1998-060A","name":"SCD 2","alt_names":[],"object_type":"PAYLOAD","status":"ACTIVE","operator":null,"country":"BRAZ","launch_date":"1998-10-23","launch_site_code":"ERAS","launch_vehicle":null,"mission":null,"orbit_class":"UNKNOWN","rcs_meters":0.4591,"size_class":null,"mass_kg":null,"dimensions":null,"purposes":["earth_obs"],"wikipedia_slug":null,"has_3d_model":false,"image_url":null,"decayed_at":null,"tle_current":{"epoch":"2026-09-19T13:26:02.084640Z","epoch_age_seconds":92318,"freshness":"FRESH","line1":"1 25504U 98060A   26262.55974635  .00000342  00000+0  44628-4 0  9997","line2":"2 25504  24.9943 210.1523 0016873  41.3044 119.1967 14.45554107473996","mean_motion":14.45554107,"eccentricity":0.0016873,"inclination_deg":24.9943,"raan_deg":210.1523,"arg_perigee_deg":41.3044,"mean_anomaly_deg":119.1967,"bstar":4.4628e-5,"rev_number":47399,"period_min":99.61578006848,"perigee_km":728.1956980776,"apogee_km":752.21725998193,"semimajor_km":7118.3434790298,"source":"CELESTRAK","updated_at":"2026-09-20T09:00:33.883644Z"}}}